OK1KZE-6 Weather Reports


Display with metric or nautical units.
time (UTC)temp
F
wind
direction
speed
MPH
gust
MPH
rain 1hr
in
rain 24hr
in
rain mn
in
humidity
%
barometer
mb
20260506233007 53 94 11.0 11.0 0.00 0.00 0.00 97 1008.6
20260506232007 54 94 11.0 11.0 0.00 0.00 0.00 96 1009.0
20260506231508 53 94 11.0 11.0 0.00 0.00 0.00 96 1009.2
20260506231007 53 94 11.0 11.0 0.00 0.00 0.00 97 1009.0
20260506230508 53 94 11.0 11.0 0.00 0.00 0.00 97 1008.7
20260506230007 53 94 11.0 11.0 0.00 0.00 0.00 97 1008.7
20260506225507 53 94 11.0 11.0 0.00 0.00 0.00 99 1008.7
20260506225008 53 94 11.0 11.0 0.00 0.00 0.00 99 1008.9
20260506224508 53 94 11.0 11.0 0.00 0.00 0.00 99 1008.8
20260506224007 53 94 11.0 11.0 0.00 0.00 0.00 99 1008.8
20260506223508 53 94 11.0 11.0 0.00 0.00 0.00 99 1008.9
20260506223008 53 94 11.0 11.0 0.00 0.00 0.00 99 1009.0
20260506222507 54 94 11.0 11.0 0.00 0.00 0.00 99 1009.0
20260506222007 54 94 11.0 11.0 0.00 0.00 0.00 99 1008.8
20260506221508 54 94 11.0 11.0 0.00 0.00 0.00 98 1008.9
20260506221007 54 94 11.0 11.0 0.00 0.00 0.00 98 1008.7
20260506220008 54 94 11.0 11.0 0.00 0.00 0.00 98 1008.5
20260506215508 54 94 11.0 11.0 0.00 0.00 0.00 98 1008.6
20260506215007 54 94 11.0 11.0 0.00 0.00 0.00 99 1008.5
20260506214507 54 94 11.0 11.0 0.00 0.00 0.00 99 1008.3
20260506214008 53 94 11.0 11.0 0.00 0.00 0.00 99 1008.3
20260506213508 53 94 11.0 11.0 0.00 0.00 0.00 99 1008.4
20260506213007 54 94 11.0 11.0 0.00 0.00 0.00 99 1008.5
20260506212507 54 94 11.0 11.0 0.00 0.00 0.00 99 1008.8
20260506212007 54 94 11.0 11.0 0.00 0.00 0.00 99 1008.5
20260506211509 54 94 11.0 11.0 0.00 0.00 0.00 98 1008.4
20260506211007 54 94 11.0 11.0 0.00 0.00 0.00 98 1008.6
20260506210507 54 94 11.0 11.0 0.00 0.00 0.00 98 1008.4
20260506210007 54 94 11.0 11.0 0.00 0.00 0.00 98 1008.6
20260506205507 54 94 11.0 11.0 0.00 0.00 0.00 98 1008.7
20260506204508 54 94 11.0 11.0 0.00 0.00 0.00 97 1008.7
20260506204007 53 94 11.0 11.0 0.00 0.00 0.00 97 1008.9
20260506203507 54 94 11.0 11.0 0.00 0.00 0.00 97 1009.0
20260506203008 55 94 11.0 11.0 0.00 0.00 0.00 97 1009.0
20260506202507 55 94 11.0 11.0 0.00 0.00 0.00 95 1008.7
20260506202006 56 94 11.0 11.0 0.00 0.00 0.00 92 1009.2
20260506201507 57 94 11.0 11.0 0.00 0.00 0.00 88 1008.8
20260506201006 56 94 11.0 11.0 0.00 0.00 0.00 88 1008.8
20260506200507 57 94 11.0 11.0 0.00 0.00 0.00 86 1008.5
20260506200008 57 94 11.0 11.0 0.00 0.00 0.00 87 1008.1
20260506195507 57 94 11.0 11.0 0.00 0.00 0.00 87 1007.6
20260506195008 57 94 11.0 11.0 0.00 0.00 0.00 87 1007.6
20260506194508 57 94 11.0 11.0 0.00 0.00 0.00 87 1007.7
20260506194007 57 94 11.0 11.0 0.00 0.00 0.00 86 1007.7
20260506193508 57 94 11.0 11.0 0.00 0.00 0.00 86 1007.6
20260506193007 57 94 11.0 11.0 0.00 0.00 0.00 86 1007.8
20260506192507 57 94 11.0 11.0 0.00 0.00 0.00 87 1007.8
20260506192008 57 94 11.0 11.0 0.00 0.00 0.00 86 1007.7
20260506191508 57 94 11.0 11.0 0.00 0.00 0.00 86 1007.4
20260506191008 57 94 11.0 11.0 0.00 0.00 0.00 85 1007.3
20260506190507 57 94 11.0 11.0 0.00 0.00 0.00 85 1007.4
20260506190008 57 94 11.0 11.0 0.00 0.00 0.00 86 1007.5
20260506185008 57 94 11.0 11.0 0.00 0.00 0.00 89 1007.3
20260506184508 57 94 11.0 11.0 0.00 0.00 0.00 88 1007.2
20260506184009 57 94 11.0 11.0 0.00 0.00 0.00 88 1007.2
20260506183507 57 94 11.0 11.0 0.00 0.00 0.00 86 1007.0
20260506183007 57 94 11.0 11.0 0.00 0.00 0.00 84 1006.7
20260506182507 57 94 11.0 11.0 0.00 0.00 0.00 85 1006.7
20260506182007 57 94 11.0 11.0 0.00 0.00 0.00 86 1006.5
20260506181508 57 94 11.0 11.0 0.00 0.00 0.00 85 1006.6
20260506181007 58 94 11.0 11.0 0.00 0.00 0.00 84 1006.7
20260506180508 58 94 11.0 11.0 0.00 0.00 0.00 84 1006.5
20260506180008 58 94 11.0 11.0 0.00 0.00 0.00 84 1006.6
20260506175507 58 94 11.0 11.0 0.00 0.00 0.00 85 1006.5
20260506175007 58 94 11.0 11.0 0.00 0.00 0.00 84 1006.5
20260506174508 58 94 11.0 11.0 0.00 0.00 0.00 84 1006.6
20260506174007 59 94 11.0 11.0 0.00 0.00 0.00 83 1006.7
20260506173507 59 94 11.0 11.0 0.00 0.00 0.00 82 1006.5
20260506173009 59 94 11.0 11.0 0.00 0.00 0.00 81 1006.4
20260506172508 59 94 11.0 11.0 0.00 0.00 0.00 80 1006.6
20260506172007 59 94 11.0 11.0 0.00 0.00 0.00 78 1006.6
20260506171509 59 94 11.0 11.0 0.00 0.00 0.00 76 1006.6
20260506171008 60 94 11.0 11.0 0.00 0.00 0.00 72 1006.7
20260506170507 59 94 11.0 11.0 0.00 0.00 0.00 72 1006.5
20260506170008 59 94 11.0 11.0 0.00 0.00 0.00 77 1006.5
20260506165509 59 94 11.0 11.0 0.00 0.00 0.00 77 1006.5
20260506165008 59 94 11.0 11.0 0.00 0.00 0.00 79 1006.5
20260506164508 59 94 11.0 11.0 0.00 0.00 0.00 79 1006.6
20260506164008 60 94 11.0 11.0 0.00 0.00 0.00 79 1006.8
20260506163507 59 94 11.0 11.0 0.00 0.00 0.00 77 1006.7
20260506163008 61 94 11.0 11.0 0.00 0.00 0.00 65 1006.6
20260506162507 61 94 11.0 11.0 0.00 0.00 0.00 67 1006.6
20260506162008 60 94 11.0 11.0 0.00 0.00 0.00 70 1006.6
20260506161507 58 94 11.0 11.0 0.00 0.00 0.00 76 1007.0
20260506161007 59 94 11.0 11.0 0.00 0.00 0.00 80 1007.2
20260506160508 58 94 11.0 11.0 0.00 0.00 0.00 78 1007.1
20260506160008 59 94 11.0 11.0 0.00 0.00 0.00 81 1007.2
20260506155508 59 94 11.0 11.0 0.00 0.00 0.00 78 1007.0
20260506155008 58 94 11.0 11.0 0.00 0.00 0.00 76 1006.9
20260506154508 59 94 11.0 11.0 0.00 0.00 0.00 76 1006.3
20260506154007 59 94 11.0 11.0 0.00 0.00 0.00 71 1007.1
20260506153507 57 94 11.0 11.0 0.00 0.00 0.00 79 1007.5
20260506153007 58 94 11.0 11.0 0.00 0.00 0.00 79 1007.8
20260506152507 59 94 11.0 11.0 0.00 0.00 0.00 74 1007.9
20260506152008 59 94 11.0 11.0 0.00 0.00 0.00 71 1007.8
20260506151508 60 94 11.0 11.0 0.00 0.00 0.00 69 1007.6
20260506151008 60 94 11.0 11.0 0.00 0.00 0.00 69 1007.7
20260506150508 60 94 11.0 11.0 0.00 0.00 0.00 70 1007.4
20260506150007 61 94 11.0 11.0 0.00 0.00 0.00 66 1007.6
20260506145508 62 94 11.0 11.0 0.00 0.00 0.00 65 1007.5
20260506145007 62 94 11.0 11.0 0.00 0.00 0.00 68 1007.5
20260506144507 62 94 11.0 11.0 0.00 0.00 0.00 71 1007.9
20260506144008 63 94 11.0 11.0 0.00 0.00 0.00 71 1008.0
20260506143508 64 94 11.0 11.0 0.00 0.00 0.00 67 1007.8
20260506143008 65 94 11.0 11.0 0.00 0.00 0.00 58 1007.9
20260506142507 66 94 11.0 11.0 0.00 0.00 0.00 56 1007.9
20260506142007 66 94 11.0 11.0 0.00 0.00 0.00 56 1007.7
20260506141508 66 94 11.0 11.0 0.00 0.00 0.00 55 1007.9
20260506141006 66 94 11.0 11.0 0.00 0.00 0.00 55 1008.0
20260506140508 66 94 11.0 11.0 0.00 0.00 0.00 57 1008.0
20260506140008 67 94 11.0 11.0 0.00 0.00 0.00 55 1008.3
20260506135508 67 94 11.0 11.0 0.00 0.00 0.00 54 1008.3
20260506135009 67 94 11.0 11.0 0.00 0.00 0.00 55 1007.9
20260506134007 67 94 11.0 11.0 0.00 0.00 0.00 53 1008.2
20260506133508 67 94 11.0 11.0 0.00 0.00 0.00 53 1008.3
20260506133007 67 94 11.0 11.0 0.00 0.00 0.00 53 1008.3
20260506132507 67 94 11.0 11.0 0.00 0.00 0.00 54 1008.3
20260506132008 68 94 11.0 11.0 0.00 0.00 0.00 53 1008.3
20260506131508 67 94 11.0 11.0 0.00 0.00 0.00 54 1008.4
20260506130508 67 94 11.0 11.0 0.00 0.00 0.00 54 1008.6
20260506130007 68 94 11.0 11.0 0.00 0.00 0.00 54 1008.7
20260506125508 68 94 11.0 11.0 0.00 0.00 0.00 56 1008.8
20260506125008 67 94 11.0 11.0 0.00 0.00 0.00 54 1008.8
20260506124508 67 94 11.0 11.0 0.00 0.00 0.00 54 1008.8
20260506124008 68 94 11.0 11.0 0.00 0.00 0.00 55 1008.7
20260506123508 67 94 11.0 11.0 0.00 0.00 0.00 55 1008.9
20260506123008 69 94 11.0 11.0 0.00 0.00 0.00 57 1009.0
20260506122507 68 94 11.0 11.0 0.00 0.00 0.00 58 1009.0
20260506122008 67 94 11.0 11.0 0.00 0.00 0.00 60 1008.9
20260506121507 66 94 11.0 11.0 0.00 0.00 0.00 62 1009.0
20260506121007 65 94 11.0 11.0 0.00 0.00 0.00 62 1009.2
20260506120508 65 94 11.0 11.0 0.00 0.00 0.00 63 1009.2
20260506120007 64 94 11.0 11.0 0.00 0.00 0.00 64 1009.0
20260506115507 64 94 11.0 11.0 0.00 0.00 0.00 68 1009.1
20260506115008 64 94 11.0 11.0 0.00 0.00 0.00 65 1009.4
20260506114508 64 94 11.0 11.0 0.00 0.00 0.00 68 1009.2
20260506114007 63 94 11.0 11.0 0.00 0.00 0.00 65 1009.3
20260506113507 64 94 11.0 11.0 0.00 0.00 0.00 66 1009.4
20260506113007 65 94 11.0 11.0 0.00 0.00 0.00 64 1009.3
20260506112507 65 94 11.0 11.0 0.00 0.00 0.00 67 1009.3
20260506112008 64 94 11.0 11.0 0.00 0.00 0.00 66 1009.6
20260506111508 63 94 11.0 11.0 0.00 0.00 0.00 66 1009.5
20260506111008 64 94 11.0 11.0 0.00 0.00 0.00 65 1009.6
20260506110507 64 94 11.0 11.0 0.00 0.00 0.00 66 1009.5
20260506110007 63 94 11.0 11.0 0.00 0.00 0.00 65 1009.6
20260506105507 64 94 11.0 11.0 0.00 0.00 0.00 66 1009.6
20260506105008 62 94 11.0 11.0 0.00 0.00 0.00 67 1009.7
20260506104508 62 94 11.0 11.0 0.00 0.00 0.00 70 1009.6
20260506104008 62 94 11.0 11.0 0.00 0.00 0.00 70 1009.8
20260506103508 62 94 11.0 11.0 0.00 0.00 0.00 70 1009.7
20260506103008 62 94 11.0 11.0 0.00 0.00 0.00 69 1009.6
20260506102508 62 94 11.0 11.0 0.00 0.00 0.00 70 1009.7
20260506102008 61 94 11.0 11.0 0.00 0.00 0.00 69 1009.6
20260506101507 62 94 11.0 11.0 0.00 0.00 0.00 69 1009.6
20260506101008 62 94 11.0 11.0 0.00 0.00 0.00 69 1009.7
20260506100507 61 94 11.0 11.0 0.00 0.00 0.00 70 1009.8
20260506100008 61 94 11.0 11.0 0.00 0.00 0.00 71 1009.5
20260506095507 61 94 11.0 11.0 0.00 0.00 0.00 71 1009.6
20260506095009 61 94 11.0 11.0 0.00 0.00 0.00 71 1009.6
20260506094508 61 94 11.0 11.0 0.00 0.00 0.00 71 1009.4
20260506094008 60 94 11.0 11.0 0.00 0.00 0.00 72 1009.6
20260506093508 60 94 11.0 11.0 0.00 0.00 0.00 71 1009.6
20260506093008 60 94 11.0 11.0 0.00 0.00 0.00 73 1009.4
20260506092008 59 94 11.0 11.0 0.00 0.00 0.00 74 1009.3
20260506091508 59 94 11.0 11.0 0.00 0.00 0.00 75 1009.4
20260506091008 59 94 11.0 11.0 0.00 0.00 0.00 74 1009.6
20260506090508 59 94 11.0 11.0 0.00 0.00 0.00 74 1009.6
20260506090007 59 94 11.0 11.0 0.00 0.00 0.00 74 1009.8
20260506085508 59 94 11.0 11.0 0.00 0.00 0.00 75 1009.5
20260506085008 59 94 11.0 11.0 0.00 0.00 0.00 76 1009.5
20260506084507 59 94 11.0 11.0 0.00 0.00 0.00 76 1009.5
20260506084007 59 94 11.0 11.0 0.00 0.00 0.00 78 1009.5
20260506083507 58 94 11.0 11.0 0.00 0.00 0.00 78 1009.5
20260506083008 58 94 11.0 11.0 0.00 0.00 0.00 79 1009.5
20260506082507 58 94 11.0 11.0 0.00 0.00 0.00 79 1009.4
20260506082007 58 94 11.0 11.0 0.00 0.00 0.00 80 1009.6
20260506081508 58 94 11.0 11.0 0.00 0.00 0.00 80 1009.6
20260506081008 57 94 11.0 11.0 0.00 0.00 0.00 81 1009.4
20260506080507 57 94 11.0 11.0 0.00 0.00 0.00 82 1009.6
20260506073507 57 216 7.0 9.0 0.00 0.00 0.00 84 1009.3
20260506073007 56 179 4.0 5.0 0.00 0.00 0.00 86 1009.2
20260506072508 56 177 6.0 11.0 0.00 0.00 0.00 86 1009.6
20260506072008 56 182 6.0 7.0 0.00 0.00 0.00 87 1009.4
20260506071508 56 183 6.0 8.0 0.00 0.00 0.00 86 1009.4
20260506071007 56 197 11.0 11.0 0.00 0.00 0.00 87 1009.1
20260506070508 55 179 5.0 9.0 0.00 0.00 0.00 88 1009.2
20260506062007 55 160 6.0 7.0 0.00 0.00 0.00 91 1009.1
20260506061508 54 153 5.0 7.0 0.00 0.00 0.00 90 1008.8
20260506061008 54 152 6.0 9.0 0.00 0.00 0.00 91 1008.9
20260506060507 54 151 8.0 10.0 0.00 0.00 0.00 92 1008.9
20260506051008 53 157 9.0 12.0 0.00 0.00 0.00 90 1009.0
20260506050508 53 167 8.0 13.0 0.00 0.00 0.00 91 1009.0
20260506045008 53 146 10.0 11.0 0.00 0.00 0.00 93 1009.0
20260506044507 53 151 11.0 12.0 0.00 0.00 0.00 93 1008.8
20260506044008 53 137 8.0 10.0 0.00 0.00 0.00 93 1008.7
20260506043508 53 157 6.0 10.0 0.00 0.00 0.00 94 1008.6
20260506043007 52 139 8.0 10.0 0.00 0.00 0.00 94 1008.7
20260506042006 52 128 6.0 8.0 0.00 0.00 0.00 94 1008.4
20260506041507 52 157 6.0 7.0 0.00 0.00 0.00 94 1008.6
20260506041007 52 111 7.0 8.0 0.00 0.00 0.00 95 1008.7
20260506040507 52 153 7.0 8.0 0.00 0.00 0.00 96 1008.6
20260506040008 52 155 6.0 7.0 0.00 0.00 0.00 95 1008.4
20260506035507 52 159 6.0 6.0 0.00 0.00 0.00 95 1008.4
20260506035007 52 160 4.0 6.0 0.00 0.00 0.00 96 1008.2
20260506034508 51 172 5.0 5.0 0.00 0.00 0.00 97 1008.1
20260506034008 51 188 6.0 7.0 0.00 0.00 0.00 98 1008.2
20260506033508 51 186 5.0 5.0 0.00 0.00 0.00 98 1008.1
20260506033008 51 173 6.0 6.0 0.00 0.00 0.00 97 1008.2
20260506032508 51 189 5.0 6.0 0.00 0.00 0.00 97 1008.1
20260506032008 51 201 4.0 4.0 0.00 0.00 0.00 98 1008.2
20260506031508 51 159 2.0 4.0 0.00 0.00 0.00 98 1008.1
20260506031007 51 156 4.0 5.0 0.00 0.00 0.00 98 1008.1
20260506030508 52 144 2.0 5.0 0.00 0.00 0.00 97 1008.1
20260506030008 52 154 5.0 5.0 0.00 0.00 0.00 97 1008.0
20260506025507 52 163 5.0 6.0 0.00 0.00 0.00 97 1008.4
20260506025008 52 149 5.0 5.0 0.00 0.00 0.00 98 1008.4
20260506024008 52 133 6.0 7.0 0.00 0.00 0.00 98 1008.4
20260506023509 52 157 7.0 9.0 0.00 0.00 0.00 98 1008.5
20260506023007 52 180 6.0 6.0 0.00 0.00 0.00 98 1008.4
20260506022507 52 135 6.0 7.0 0.00 0.00 0.00 98 1008.4
20260506022007 52 128 6.0 8.0 0.00 0.00 0.00 97 1008.4
20260506021508 52 152 6.0 6.0 0.00 0.00 0.00 97 1008.6
20260506021009 52 207 6.0 6.0 0.00 0.00 0.00 98 1008.6
20260506020508 52 191 6.0 6.0 0.00 0.00 0.00 99 1008.6
20260506020008 52 191 5.0 7.0 0.00 0.00 0.00 99 1008.5
20260506015506 52 176 6.0 7.0 0.00 0.00 0.00 99 1008.5
20260506015007 53 167 5.0 6.0 0.00 0.00 0.00 99 1008.4
20260506014507 53 139 5.0 5.0 0.00 0.00 0.00 99 1008.4
20260506014007 53 129 6.0 7.0 0.00 0.00 0.00 99 1008.3
20260506013508 53 167 5.0 6.0 0.00 0.00 0.00 98 1008.2
20260506013008 53 152 5.0 7.0 0.00 0.00 0.00 98 1008.3
20260506012507 53 181 6.0 8.0 0.00 0.00 0.00 98 1008.3
20260506012007 53 156 5.0 9.0 0.00 0.00 0.00 98 1008.2
20260506011507 53 186 6.0 7.0 0.00 0.00 0.00 98 1008.1
20260506011008 53 171 9.0 11.0 0.00 0.00 0.00 98 1008.2
20260506010507 53 151 7.0 8.0 0.00 0.00 0.00 98 1008.0
20260506010007 54 138 5.0 7.0 0.00 0.00 0.00 99 1008.1
20260506005507 54 127 8.0 10.0 0.00 0.00 0.00 99 1008.1
20260506005007 54 131 10.0 11.0 0.00 0.00 0.00 99 1008.3
20260506004508 54 143 8.0 9.0 0.00 0.00 0.00 99 1008.2
20260506004007 54 126 8.0 9.0 0.00 0.00 0.00 99 1008.2
20260506003507 54 128 9.0 10.0 0.00 0.00 0.00 99 1008.2
20260506003008 54 125 10.0 11.0 0.00 0.00 0.00 99 1008.2
20260506002506 54 130 10.0 10.0 0.00 0.00 0.00 99 1008.2
20260506002007 54 130 7.0 7.0 0.00 0.00 0.00 98 1008.4
20260506001507 54 125 5.0 6.0 0.00 0.00 0.00 98 1008.3
20260506001008 55 131 5.0 6.0 0.00 0.00 0.00 97 1008.2
20260506000508 55 128 5.0 5.0 0.00 0.00 0.00 96 1008.2
20260506000009 55 116 6.0 6.0 0.00 0.00 0.00 96 1008.0
20260505235507 54 125 5.0 5.0 0.00 0.00 0.00 97 1007.9
20260505235007 54 124 7.0 8.0 0.00 0.00 0.00 98 1008.3
20260505234507 54 132 5.0 6.0 0.00 0.00 0.00 98 1008.2
20260505234006 54 111 5.0 5.0 0.00 0.00 0.00 98 1008.2
20260505233508 54 110 6.0 7.0 0.00 0.00 0.00 98 1008.0